BRX291 ESSB-ESGG

Flight info

Callsign BRX291
Flight time 0h 45m
Altitude 28000
Route TINKA Y42 DEPEX N866 LAPSI DCT MOXAM
Aircraft RJ85/M-SDFGIRWY/LB1

Departure

Time 2026-05-07 16:52
Airport Stockholm-Bromma Airport (ESSB)

Arrival

Time 2026-05-07 17:38
Airport Göteborg Landvetter Airport (ESGG)
Time Latitude Longitude Altitude Speed Heading
2026-05-07 16:23 59.35506 17.94454 40 ft 0 kts 88°
2026-05-07 16:47 59.35506 17.94457 40 ft 1 kts 99°
2026-05-07 16:47 59.35496 17.94466 40 ft 3 kts 192°
2026-05-07 16:47 59.35484 17.94405 40 ft 7 kts 273°
2026-05-07 16:47 59.35507 17.94315 40 ft 8 kts 304°
2026-05-07 16:48 59.35541 17.94211 40 ft 10 kts 304°
2026-05-07 16:48 59.35600 17.94139 40 ft 11 kts 343°
2026-05-07 16:48 59.35668 17.94053 40 ft 13 kts 306°
2026-05-07 16:48 59.35722 17.93900 40 ft 15 kts 304°
2026-05-07 16:49 59.35783 17.93728 40 ft 16 kts 305°
2026-05-07 16:49 59.35852 17.93540 40 ft 18 kts 304°
2026-05-07 16:49 59.35920 17.93346 40 ft 17 kts 305°
2026-05-07 16:49 59.35977 17.93187 40 ft 10 kts 305°
2026-05-07 16:50 59.35990 17.93082 40 ft 6 kts 261°
2026-05-07 16:50 59.35981 17.93009 40 ft 5 kts 254°
2026-05-07 16:50 59.35977 17.92986 40 ft 1 kts 254°
2026-05-07 16:50 59.35976 17.92975 40 ft 3 kts 254°
2026-05-07 16:51 59.35960 17.92891 40 ft 11 kts 238°
2026-05-07 16:51 59.35903 17.92857 37 ft 8 kts 135°
2026-05-07 16:51 59.35897 17.92873 37 ft 0 kts 123°
2026-05-07 16:51 59.35793 17.93165 33 ft 62 kts 125°
2026-05-07 16:52 59.35415 17.94216 37 ft 126 kts 125°
2026-05-07 16:52 59.34880 17.95761 508 ft 139 kts 124°
2026-05-07 16:52 59.34368 17.97349 1391 ft 139 kts 126°
2026-05-07 16:52 59.33820 17.98943 1921 ft 148 kts 128°
2026-05-07 16:53 59.33174 18.00744 2012 ft 174 kts 128°
2026-05-07 16:53 59.32434 18.02791 2041 ft 196 kts 127°
2026-05-07 16:53 59.31623 18.04960 2612 ft 194 kts 135°
2026-05-07 16:53 59.30458 18.06086 3265 ft 194 kts 180°
2026-05-07 16:54 59.29212 18.05128 3804 ft 201 kts 224°
2026-05-07 16:54 59.28595 18.02650 4337 ft 207 kts 262°
2026-05-07 16:54 59.28436 17.99841 4800 ft 216 kts 264°
2026-05-07 16:54 59.28247 17.96818 5105 ft 232 kts 261°
2026-05-07 16:55 59.27952 17.93619 5431 ft 246 kts 260°
2026-05-07 16:55 59.27845 17.92496 5552 ft 250 kts 260°
2026-05-07 16:55 59.27637 17.90276 5820 ft 256 kts 260°
2026-05-07 16:55 59.27314 17.86842 6426 ft 258 kts 261°
2026-05-07 16:56 59.26996 17.83375 7061 ft 259 kts 261°
2026-05-07 16:56 59.26687 17.79915 7752 ft 258 kts 262°
2026-05-07 16:56 59.26102 17.73007 9214 ft 258 kts 262°
2026-05-07 16:57 59.25810 17.69479 9858 ft 264 kts 262°
2026-05-07 16:57 59.25495 17.65803 10048 ft 288 kts 261°
2026-05-07 16:57 59.25153 17.61837 10108 ft 305 kts 261°
2026-05-07 16:57 59.24789 17.57646 10133 ft 324 kts 261°
2026-05-07 16:58 59.24410 17.53275 10137 ft 320 kts 261°
2026-05-07 16:58 59.24042 17.49054 10126 ft 318 kts 261°
2026-05-07 16:58 59.23671 17.44798 10118 ft 319 kts 261°
2026-05-07 16:58 59.23292 17.40470 10111 ft 318 kts 261°
2026-05-07 16:59 59.22923 17.36262 10117 ft 319 kts 261°
2026-05-07 16:59 59.22547 17.32005 10103 ft 319 kts 261°
2026-05-07 16:59 59.22166 17.27673 10102 ft 319 kts 261°
2026-05-07 16:59 59.21795 17.23460 10098 ft 320 kts 261°
2026-05-07 17:00 59.21416 17.19163 10365 ft 322 kts 261°
2026-05-07 17:00 59.21023 17.14815 10829 ft 323 kts 260°
2026-05-07 17:00 59.20617 17.10471 11017 ft 332 kts 260°
2026-05-07 17:00 59.20208 17.06122 11077 ft 321 kts 260°
2026-05-07 17:01 59.19806 17.01810 11099 ft 322 kts 260°
2026-05-07 17:01 59.19414 16.97511 11310 ft 322 kts 260°
2026-05-07 17:01 59.19018 16.93283 12238 ft 310 kts 260°
2026-05-07 17:01 59.18632 16.89126 12774 ft 314 kts 260°
2026-05-07 17:02 59.18244 16.84920 13307 ft 316 kts 260°
2026-05-07 17:02 59.17859 16.80687 13824 ft 318 kts 260°
2026-05-07 17:02 59.17475 16.76428 14288 ft 319 kts 260°
2026-05-07 17:02 59.17090 16.72160 14751 ft 320 kts 259°
2026-05-07 17:03 59.16685 16.67892 15191 ft 321 kts 259°
2026-05-07 17:03 59.16271 16.63612 15629 ft 322 kts 259°
2026-05-07 17:03 59.15853 16.59316 16055 ft 323 kts 259°
2026-05-07 17:03 59.15446 16.55005 16485 ft 324 kts 259°
2026-05-07 17:04 59.15034 16.50685 16900 ft 325 kts 259°
2026-05-07 17:04 59.14612 16.46361 17318 ft 326 kts 259°
2026-05-07 17:04 59.14193 16.42016 17737 ft 327 kts 259°
2026-05-07 17:04 59.13782 16.37645 18137 ft 328 kts 259°
2026-05-07 17:05 59.13355 16.33267 18509 ft 330 kts 259°
2026-05-07 17:05 59.12925 16.28885 18887 ft 330 kts 259°
2026-05-07 17:05 59.12495 16.24481 19251 ft 331 kts 259°
2026-05-07 17:05 59.12067 16.20082 19609 ft 331 kts 258°
2026-05-07 17:06 59.11639 16.15661 19962 ft 332 kts 258°
2026-05-07 17:06 59.11214 16.11236 20312 ft 333 kts 258°
2026-05-07 17:06 59.10783 16.06803 20654 ft 334 kts 258°
2026-05-07 17:06 59.10331 16.02367 20998 ft 335 kts 258°
2026-05-07 17:07 59.09877 15.97927 21325 ft 336 kts 258°
2026-05-07 17:07 59.09426 15.93453 21660 ft 337 kts 258°
2026-05-07 17:07 59.08970 15.88991 21973 ft 338 kts 258°
2026-05-07 17:07 59.08510 15.84498 22288 ft 339 kts 258°
2026-05-07 17:08 59.08057 15.80060 22586 ft 340 kts 257°
2026-05-07 17:08 59.07591 15.75494 22903 ft 341 kts 257°
2026-05-07 17:08 59.07130 15.70959 23206 ft 342 kts 257°
2026-05-07 17:08 59.06670 15.66413 23516 ft 343 kts 257°
2026-05-07 17:09 59.06210 15.61865 23775 ft 344 kts 257°
2026-05-07 17:09 59.05750 15.57285 24037 ft 345 kts 257°
2026-05-07 17:09 59.05287 15.52711 24286 ft 345 kts 257°
2026-05-07 17:09 59.04804 15.48147 24530 ft 346 kts 257°
2026-05-07 17:10 59.04312 15.43546 24714 ft 349 kts 256°
2026-05-07 17:10 59.03823 15.38958 25082 ft 344 kts 256°
2026-05-07 17:10 59.03342 15.34436 25496 ft 341 kts 256°
2026-05-07 17:10 59.02867 15.29932 25807 ft 339 kts 256°
2026-05-07 17:11 59.02400 15.25455 26093 ft 338 kts 256°
2026-05-07 17:11 59.01936 15.20986 26387 ft 337 kts 256°
2026-05-07 17:11 59.01469 15.16532 26683 ft 336 kts 256°
2026-05-07 17:11 59.00987 15.12111 26971 ft 335 kts 255°
2026-05-07 17:12 59.00499 15.07686 27239 ft 334 kts 255°
2026-05-07 17:12 59.00012 15.03283 27514 ft 334 kts 255°
2026-05-07 17:12 58.99528 14.98884 27788 ft 333 kts 255°
2026-05-07 17:12 58.99049 14.94509 27991 ft 332 kts 255°
2026-05-07 17:13 58.98099 14.85833 28085 ft 327 kts 255°
2026-05-07 17:13 58.97143 14.77034 28095 ft 340 kts 256°
2026-05-07 17:14 58.96162 14.67938 28107 ft 349 kts 255°
2026-05-07 17:14 58.95135 14.58740 28103 ft 349 kts 255°
2026-05-07 17:15 58.94121 14.49531 28106 ft 350 kts 256°
2026-05-07 17:15 58.93078 14.40315 28104 ft 351 kts 256°
2026-05-07 17:16 58.91741 14.31269 28109 ft 350 kts 244°
2026-05-07 17:16 58.89235 14.23197 28112 ft 351 kts 237°
2026-05-07 17:17 58.86332 14.15547 28111 ft 354 kts 234°
2026-05-07 17:17 58.83338 14.07993 28107 ft 354 kts 234°
2026-05-07 17:18 58.80369 14.00409 28110 ft 355 kts 234°
2026-05-07 17:18 58.77400 13.92782 28100 ft 356 kts 234°
2026-05-07 17:19 58.74421 13.85141 28106 ft 357 kts 234°
2026-05-07 17:19 58.71438 13.77502 28103 ft 357 kts 234°
2026-05-07 17:20 58.69980 13.73786 28094 ft 338 kts 234°
2026-05-07 17:20 58.68604 13.70296 28083 ft 320 kts 234°
2026-05-07 17:20 58.65921 13.63515 28085 ft 319 kts 234°
2026-05-07 17:21 58.64584 13.60138 27703 ft 319 kts 234°
2026-05-07 17:21 58.63213 13.56687 26799 ft 328 kts 234°
2026-05-07 17:21 58.61822 13.53196 26034 ft 332 kts 234°
2026-05-07 17:21 58.60412 13.49670 25291 ft 335 kts 234°
2026-05-07 17:22 58.59448 13.47267 24774 ft 337 kts 234°
2026-05-07 17:22 58.58008 13.43685 24057 ft 340 kts 235°
2026-05-07 17:22 58.56511 13.40196 23451 ft 340 kts 226°
2026-05-07 17:22 58.54710 13.37343 23208 ft 330 kts 221°
2026-05-07 17:23 58.52923 13.34785 22390 ft 324 kts 220°
2026-05-07 17:23 58.51104 13.32248 21614 ft 322 kts 220°
2026-05-07 17:23 58.49291 13.29754 20895 ft 320 kts 220°
2026-05-07 17:23 58.47493 13.27244 20370 ft 319 kts 220°
2026-05-07 17:24 58.45707 13.24736 19872 ft 318 kts 220°
2026-05-07 17:24 58.43929 13.22234 19362 ft 317 kts 220°
2026-05-07 17:24 58.42160 13.19736 18873 ft 316 kts 220°
2026-05-07 17:24 58.40401 13.17239 18367 ft 315 kts 220°
2026-05-07 17:25 58.38621 13.14679 17487 ft 323 kts 220°
2026-05-07 17:25 58.36855 13.12142 17142 ft 315 kts 220°
2026-05-07 17:25 58.35117 13.09645 16635 ft 313 kts 220°
2026-05-07 17:25 58.33387 13.07157 16163 ft 310 kts 219°
2026-05-07 17:26 58.31668 13.04723 15724 ft 307 kts 219°
2026-05-07 17:26 58.29954 13.02304 15073 ft 310 kts 219°
2026-05-07 17:26 58.28206 12.99819 14455 ft 313 kts 219°
2026-05-07 17:26 58.26468 12.97334 13855 ft 315 kts 219°
2026-05-07 17:27 58.24703 12.94833 13182 ft 316 kts 218°
2026-05-07 17:27 58.22953 12.92360 12597 ft 315 kts 218°
2026-05-07 17:27 58.21205 12.89879 12070 ft 312 kts 218°
2026-05-07 17:27 58.19489 12.87470 11553 ft 310 kts 217°
2026-05-07 17:28 58.17739 12.85020 11028 ft 308 kts 217°
2026-05-07 17:28 58.16027 12.82615 10550 ft 305 kts 217°
2026-05-07 17:28 58.14355 12.80248 10075 ft 303 kts 217°
2026-05-07 17:28 58.12648 12.77861 9521 ft 300 kts 216°
2026-05-07 17:29 58.10996 12.75558 8988 ft 298 kts 216°
2026-05-07 17:29 58.09338 12.73248 8555 ft 293 kts 216°
2026-05-07 17:29 58.07716 12.70990 8128 ft 288 kts 216°
2026-05-07 17:29 58.06136 12.68786 7686 ft 286 kts 216°
2026-05-07 17:30 58.04544 12.66551 7217 ft 284 kts 216°
2026-05-07 17:30 58.02955 12.64326 6759 ft 283 kts 216°
2026-05-07 17:30 58.01400 12.62184 6631 ft 271 kts 215°
2026-05-07 17:30 57.99906 12.60119 6370 ft 265 kts 215°
2026-05-07 17:31 57.98445 12.58102 6214 ft 255 kts 216°
2026-05-07 17:31 57.96994 12.56209 5903 ft 252 kts 210°
2026-05-07 17:31 57.95478 12.54675 5791 ft 243 kts 206°
2026-05-07 17:31 57.93974 12.53280 5571 ft 240 kts 205°
2026-05-07 17:32 57.92473 12.51925 5297 ft 239 kts 204°
2026-05-07 17:32 57.90969 12.50589 5056 ft 238 kts 204°
2026-05-07 17:32 57.89475 12.49268 4815 ft 237 kts 205°
2026-05-07 17:32 57.87994 12.47931 4560 ft 236 kts 205°
2026-05-07 17:33 57.86520 12.46590 4305 ft 234 kts 205°
2026-05-07 17:33 57.85068 12.45232 4114 ft 230 kts 207°
2026-05-07 17:33 57.83697 12.43900 3832 ft 216 kts 207°
2026-05-07 17:33 57.82406 12.42668 3700 ft 198 kts 206°
2026-05-07 17:34 57.81229 12.41580 3481 ft 180 kts 206°
2026-05-07 17:34 57.80126 12.40586 3075 ft 172 kts 205°
2026-05-07 17:34 57.79042 12.39626 2706 ft 171 kts 206°
2026-05-07 17:34 57.77978 12.38660 2618 ft 170 kts 206°
2026-05-07 17:35 57.76914 12.37691 2542 ft 168 kts 208°
2026-05-07 17:35 57.75863 12.36725 2511 ft 169 kts 208°
2026-05-07 17:35 57.74808 12.35756 2275 ft 167 kts 208°
2026-05-07 17:35 57.73762 12.34808 2030 ft 167 kts 209°
2026-05-07 17:36 57.72736 12.33876 1803 ft 158 kts 209°
2026-05-07 17:36 57.71805 12.33023 1546 ft 140 kts 208°
2026-05-07 17:36 57.70964 12.32254 1349 ft 131 kts 210°
2026-05-07 17:36 57.70150 12.31523 1123 ft 128 kts 210°
2026-05-07 17:37 57.69345 12.30784 954 ft 129 kts 211°
2026-05-07 17:37 57.68535 12.30017 759 ft 132 kts 212°
2026-05-07 17:37 57.67708 12.29273 578 ft 131 kts 208°
2026-05-07 17:37 57.66977 12.28617 513 ft 90 kts 206°
2026-05-07 17:38 57.66570 12.28243 511 ft 44 kts 206°
2026-05-07 17:38 57.66352 12.28043 510 ft 27 kts 204°
2026-05-07 17:38 57.66215 12.27927 509 ft 13 kts 197°
2026-05-07 17:38 57.66136 12.27979 508 ft 13 kts 124°
2026-05-07 17:39 57.66101 12.28123 509 ft 11 kts 94°
2026-05-07 17:39 57.66117 12.28176 509 ft 0 kts 26°
2026-05-07 17:40 57.66120 12.28179 509 ft 2 kts 25°
2026-05-07 17:40 57.66153 12.28207 509 ft 8 kts 25°
2026-05-07 17:40 57.66223 12.28269 510 ft 14 kts 26°
2026-05-07 17:40 57.66317 12.28357 510 ft 16 kts 26°
2026-05-07 17:41 57.66415 12.28447 511 ft 16 kts 25°
2026-05-07 17:41 57.66516 12.28537 511 ft 16 kts 25°
2026-05-07 17:41 57.66620 12.28631 512 ft 17 kts 26°
2026-05-07 17:41 57.66725 12.28727 512 ft 17 kts 26°
2026-05-07 17:42 57.66832 12.28825 513 ft 17 kts 26°
2026-05-07 17:42 57.66939 12.28922 513 ft 17 kts 25°
2026-05-07 17:42 57.67029 12.29004 514 ft 9 kts 31°
2026-05-07 17:42 57.67039 12.29093 514 ft 7 kts 117°
2026-05-07 17:43 57.67023 12.29153 516 ft 5 kts 116°
2026-05-07 17:43 57.67001 12.29237 516 ft 10 kts 116°
2026-05-07 17:43 57.66980 12.29332 516 ft 6 kts 89°
2026-05-07 17:43 57.67001 12.29378 516 ft 4 kts 63°
2026-05-07 17:44 57.66989 12.29431 516 ft 5 kts 118°
2026-05-07 17:44 57.66977 12.29479 516 ft 3 kts 114°
2026-05-07 17:44 57.66974 12.29491 516 ft 1 kts 115°
2026-05-07 17:44 57.66972 12.29500 516 ft 1 kts 115°
2026-05-07 17:45 57.66970 12.29508 516 ft 0 kts 116°